[[{"header":{"parameterUnit":"m.s-1","parameterCategory":1,"la1":30.2991,"la2":30.254,"lo1":-89.0895,"lo2":-89.0444,"dy":0.0017,"dx":0.0017,"nx":28,"ny":28,"refTime":"2025-04-02T03:00:00:Z","depth":0,"parameterNumber":2,"parameterNumberName":"U-component_of_WINDS"},"data":[0,0,0,0,0,0,0,0,0,0,0,0,0,0,0,0,0,0,0,0,0,0,0,0,0,0,0,0,0,0,0,0,0,0,0,0,0,0,0,0,0,0,0,0,0,0,0,0,0,0,0,0,0,0,0,0,0,0,-4.1993,-4.1994,0,-4.2093,-4.2094,-4.2095,-4.2116,-4.2115,-4.2114,-4.2114,-4.2214,-4.2218,-4.2221,0,0,0,0,0,0,0,0,0,0,0,0,0,-4.1819,-4.1822,-4.1993,-4.1994,-4.1995,-4.2092,-4.2094,-4.2095,-4.2116,-4.2115,-4.2114,-4.2113,-4.2213,-4.2217,-4.2221,0,0,0,0,0,0,0,0,0,0,0,0,0,-4.1904,-4.1823,-4.1993,-4.2017,-4.2021,-4.2092,-4.2094,-4.2096,-4.2116,-4.2115,-4.2114,-4.2113,-4.2212,-4.2217,-4.2222,-4.2275,0,0,-4.2237,-4.2239,0,0,0,0,0,0,0,0,-4.1899,-4.1911,-4.2012,-4.2016,-4.202,-4.2091,-4.207,-4.2156,-4.2116,-4.208,-4.2114,-4.2112,-4.2174,-4.2182,-4.2203,-4.228,-4.2284,-4.2238,-4.2241,-4.2243,-4.2244,0,0,0,0,0,0,0,-4.1894,-4.1907,-4.2032,-4.2014,-4.2018,-4.2023,-4.2034,-4.2086,-4.2132,-4.2083,-4.2085,-4.2096,-4.2176,-4.2198,-4.2206,-4.2286,-4.2238,-4.2242,-4.2245,-4.2247,-4.2411,-4.2412,0,0,0,0,0,0,-4.1883,-4.1901,-4.2029,-4.2035,-4.1956,-4.2027,-4.2039,-4.2069,-4.2131,-4.214,-4.2097,-4.2097,-4.219,-4.22,-4.2209,-4.2275,-4.2243,-4.2248,-4.2251,-4.241,-4.2411,-4.2413,0,0,0,0,0,0,-4.188,-4.1895,-4.2025,-4.1969,-4.1986,-4.2031,-4.2064,-4.2071,-4.2094,-4.2142,-4.215,-4.2112,-4.219,-4.2202,-4.2259,-4.2279,-4.225,-4.2255,-4.2408,-4.241,-4.2412,-4.2407,0,0,0,0,0,0,-4.1875,-4.1893,-4.1914,-4.1969,-4.1989,-4.2073,-4.2066,-4.2074,-4.2103,-4.2104,-4.2158,-4.2166,-4.219,-4.2251,-4.2264,-4.2285,-4.2258,-4.2406,-4.2409,-4.2411,-4.2406,-4.2409,-4.2412,0,0,0,0,0,-4.1868,-4.1909,-4.1915,-4.193,-4.2016,-4.2074,-4.2085,-4.2112,-4.2104,-4.2126,-4.2157,-4.2164,-4.2275,-4.2257,-4.2271,-4.2295,-4.2405,-4.2408,-4.2411,-4.2405,-4.2408,-4.2412,0,0,0,0,0,0,-4.1854,-4.1916,-4.1924,-4.1983,-4.2023,-4.2077,-4.2105,-4.2115,-4.2158,-4.2156,-4.2188,-4.22,-4.2254,-4.2281,-4.2259,-4.2349,-4.234,-4.2346,-4.233,-4.2334,-4.2337,-4.2328,-4.2263,0,0,0,0,0,-4.1858,-4.19,-4.1952,-4.2,-4.2019,-4.2059,-4.2085,-4.2102,-4.2145,-4.2162,-4.2197,-4.2237,-4.2281,-4.2309,-4.2353,-4.2411,-4.2422,-4.2434,-4.2437,-4.2439,-4.2443,-4.2475,-4.2481,-4.2422,-4.2422,-4.2422,0,0,-4.1866,-4.1905,-4.193,-4.1998,-4.2031,-4.2073,-4.2073,-4.2118,-4.2149,-4.2168,-4.2223,-4.2251,-4.2298,-4.2356,-4.2383,-4.2379,-4.2462,-4.2443,-4.2444,-4.2447,-4.2479,-4.2484,-4.2489,-4.2424,-4.2424,-4.2424,0,0,-4.1901,-4.1936,-4.1979,-4.2012,-4.2063,-4.2089,-4.2099,-4.2152,-4.2171,-4.2227,-4.2242,-4.2281,-4.2356,-4.2389,-4.2415,-4.2465,-4.2473,-4.2479,-4.2492,-4.2523,-4.2528,-4.2532,-4.2548,-4.2554,-4.2483,-4.2483,-4.2483,0,-4.1905,-4.197,-4.2,-4.2044,-4.2073,-4.2094,-4.2137,-4.2168,-4.2229,-4.2249,-4.2244,-4.2339,-4.2373,-4.2437,-4.245,-4.2471,-4.2483,-4.2471,-4.2525,-4.2529,-4.2534,-4.255,-4.2556,-4.2483,-4.2483,-4.2483,-4.2483,0,-4.1971,-4.2016,-4.2045,-4.2104,-4.2136,-4.218,-4.2216,-4.2246,-4.2261,-4.2287,-4.2344,-4.2385,-4.2437,-4.2454,-4.2469,-4.2521,-4.2517,-4.2519,-4.2509,-4.2539,-4.2554,-4.2561,-4.2483,-4.2483,-4.2483,-4.2483,0,0,-4.1998,-4.2074,-4.2084,-4.2111,-4.2169,-4.2204,-4.2249,-4.23,-4.2324,-4.2366,-4.2404,-4.2468,-4.247,-4.25,-4.2519,-4.2546,-4.2582,-4.2544,-4.2546,-4.2548,-4.264,-4.2638,-4.2644,-4.2589,-4.259,-4.2591,-4.2636,0,-4.204,-4.212,-4.2149,-4.2215,-4.2256,-4.2277,-4.2316,-4.2355,-4.2382,-4.2421,-4.245,-4.2494,-4.2494,-4.2512,-4.254,-4.2571,-4.26,-4.2569,-4.2623,-4.2624,-4.2608,-4.2653,-4.265,-4.269,-4.2642,-4.2643,-4.2644,0,-4.2099,-4.2142,-4.2212,-4.2265,-4.2283,-4.2318,-4.2367,-4.2404,-4.2449,-4.2466,-4.2501,-4.2518,-4.2565,-4.2555,-4.262,-4.2598,-4.2622,-4.2641,-4.2643,-4.2648,-4.2634,-4.2656,-4.2704,-4.2709,-4.2654,-4.2654,-4.2653,0,-4.211,-4.2186,-4.2238,-4.2261,-4.2323,-4.2347,-4.2374,-4.2418,-4.2447,-4.249,-4.2509,-4.2557,-4.2583,-4.262,-4.265,-4.264,-4.2712,-4.2704,-4.2726,-4.2726,-4.2739,-4.2737,-4.2789,-4.2758,-4.2758,-4.2757,-4.2757,0,-4.2152,-4.2194,-4.2244,-4.2275,-4.2322,-4.2355,-4.2401,-4.243,-4.2469,-4.2506,-4.2528,-4.2562,-4.26,-4.264,-4.2664,-4.2714,-4.2726,-4.274,-4.2746,-4.2737,-4.2735,-4.2752,-4.2749,-4.2759,-4.2759,-4.2758,-4.2758,0,-4.2172,-4.2207,-4.2264,-4.2319,-4.2334,-4.2366,-4.2413,-4.2445,-4.2473,-4.252,-4.2532,-4.2576,-4.2624,-4.2658,-4.2719,-4.2735,-4.2788,-4.2795,-4.2773,-4.2775,-4.2795,-4.2792,-4.2858,-4.2868,-4.2831,-4.2832,-4.2832,0,-4.2195,-4.2228,-4.2287,-4.2313,-4.234,-4.2383,-4.2413,-4.2447,-4.2477,-4.2531,-4.2556,-4.2605,-4.2646,-4.2721,-4.2758,-4.2805,-4.2811,-4.2831,-4.2818,-4.2809,-4.281,-4.2807,-4.281,-4.2832,-4.2833,-4.2833,-4.2833,0,-4.2233,-4.2249,-4.2291,-4.234,-4.2375,-4.2414,-4.2454,-4.2475,-4.2516,-4.2548,-4.2597,-4.2629,-4.2692,-4.274,-4.2791,-4.2819,-4.2833,-4.2837,-4.2844,-4.2835,-4.282,-4.2827,-4.2776,-4.2835,-4.2835,-4.2834,-4.2834,-4.2834,-4.2255,-4.2284,-4.233,-4.2376,-4.241,-4.2447,-4.2479,-4.2511,-4.2553,-4.2607,-4.2625,-4.2675,-4.272,-4.279,-4.2818,-4.2858,-4.2857,-4.2868,-4.2871,-4.2872,-4.2871,-4.2816,-4.2868,-4.2868,-4.2868,-4.2868,-4.2868,0,-4.2292,-4.2323,-4.2365,-4.2421,-4.2457,-4.2468,-4.2513,-4.2542,-4.2586,-4.2627,-4.2667,-4.2723,-4.2771,-4.2812,-4.2861,-4.2885,-4.2892,-4.2896,-4.2894,-4.29,-4.287,-4.2858,-4.2889,-4.2889,-4.2889,-4.2889,-4.2889,-4.2889,-4.2316,-4.2367,-4.2388,-4.2455,-4.2486,-4.2536,-4.256,-4.2595,-4.2627,-4.2689,-4.2728,-4.2755,-4.2796,-4.2848,-4.2892,-4.2903,-4.2919,-4.2922,-4.2934,-4.2905,-4.2902,-4.2899,-4.2888,-4.2925,-4.2925,-4.296,-4.296,-4.2961]},{"header":{"parameterUnit":"m.s-1","parameterCategory":1,"la1":30.2991,"la2":30.254,"lo1":-89.0895,"lo2":-89.0444,"dy":0.0017,"dx":0.0017,"nx":28,"ny":28,"refTime":"2025-04-02T03:00:00:Z","depth":0,"parameterNumber":3,"parameterNumberName":"V-component_of_WINDS"},"data":[0,0,0,0,0,0,0,0,0,0,0,0,0,0,0,0,0,0,0,0,0,0,0,0,0,0,0,0,0,0,0,0,0,0,0,0,0,0,0,0,0,0,0,0,0,0,0,0,0,0,0,0,0,0,0,0,0,0,5.8634,5.8634,0,5.867,5.8671,5.8671,5.8621,5.862,5.8618,5.8616,5.8652,5.8654,5.8657,0,0,0,0,0,0,0,0,0,0,0,0,0,5.852,5.8522,5.8634,5.8634,5.8635,5.867,5.8671,5.8671,5.8622,5.862,5.8617,5.8615,5.8651,5.8654,5.8657,0,0,0,0,0,0,0,0,0,0,0,0,0,5.8564,5.8523,5.8634,5.8614,5.8613,5.867,5.8671,5.8672,5.8622,5.862,5.8617,5.8614,5.865,5.8654,5.8657,5.8735,0,0,5.8669,5.8671,0,0,0,0,0,0,0,0,5.8562,5.8568,5.8617,5.8616,5.8614,5.8639,5.8644,5.8693,5.8623,5.8619,5.8616,5.8613,5.8649,5.8653,5.8666,5.8737,5.8738,5.867,5.8672,5.8674,5.8675,0,0,0,0,0,0,0,5.8558,5.8566,5.8648,5.8617,5.8616,5.8603,5.8607,5.8653,5.8648,5.8619,5.8615,5.862,5.8648,5.8662,5.8666,5.8739,5.867,5.8673,5.8675,5.8677,5.8878,5.888,0,0,0,0,0,0,5.8558,5.8564,5.8647,5.8649,5.8581,5.8608,5.8611,5.8633,5.8648,5.8647,5.8623,5.8618,5.8657,5.8662,5.8667,5.8761,5.8674,5.8677,5.868,5.8875,5.8878,5.8881,0,0,0,0,0,0,5.8556,5.8566,5.8645,5.8606,5.8615,5.8612,5.8638,5.8636,5.865,5.8651,5.865,5.8638,5.8655,5.8662,5.8719,5.8761,5.8679,5.8683,5.8871,5.8876,5.888,5.8948,0,0,0,0,0,0,5.8553,5.8565,5.8595,5.8607,5.8617,5.8697,5.864,5.8638,5.8657,5.8651,5.8665,5.8664,5.8653,5.8714,5.8723,5.8765,5.8686,5.8867,5.8873,5.8878,5.8942,5.8954,5.8964,0,0,0,0,0,5.8549,5.8611,5.8596,5.8607,5.8654,5.87,5.8706,5.8692,5.866,5.869,5.8691,5.8664,5.8755,5.872,5.873,5.8774,5.8865,5.8871,5.8878,5.8937,5.8952,5.8964,0,0,0,0,0,0,5.8603,5.8612,5.8596,5.8665,5.8682,5.8691,5.8728,5.8708,5.8734,5.8728,5.8709,5.8713,5.8775,5.878,5.8741,5.8851,5.8805,5.8814,5.8846,5.886,5.8871,5.8869,5.8689,0,0,0,0,0,5.8623,5.866,5.8666,5.8726,5.8735,5.8731,5.875,5.8738,5.8755,5.8762,5.8767,5.8784,5.8817,5.8838,5.8868,5.8942,5.8945,5.8977,5.8989,5.8998,5.9006,5.9048,5.9063,5.8903,5.8903,5.8903,0,0,5.8664,5.8674,5.8698,5.8737,5.8749,5.8787,5.8737,5.8779,5.8808,5.8768,5.8823,5.8828,5.8845,5.8912,5.8942,5.8919,5.9051,5.9007,5.9014,5.9017,5.9057,5.9072,5.9085,5.8908,5.8907,5.8906,0,0,5.876,5.8771,5.8823,5.8837,5.8856,5.8853,5.8866,5.8879,5.8881,5.8936,5.8908,5.8941,5.8997,5.9012,5.9027,5.9131,5.9107,5.9141,5.92,5.9241,5.9254,5.9265,5.9303,5.9317,5.9149,5.9149,5.9149,0,5.8809,5.8866,5.8852,5.8897,5.8916,5.8883,5.8936,5.895,5.8978,5.8991,5.8965,5.9037,5.9046,5.9117,5.9142,5.9155,5.9169,5.9139,5.9253,5.9264,5.9274,5.9311,5.9325,5.9153,5.9153,5.9152,5.9152,0,5.8927,5.8967,5.9007,5.9037,5.9059,5.9108,5.9101,5.9126,5.9113,5.9113,5.9171,5.9181,5.9214,5.923,5.9216,5.9299,5.9285,5.9256,5.9209,5.9294,5.9328,5.9342,5.9159,5.9157,5.9156,5.9155,0,0,5.9057,5.908,5.9095,5.9109,5.9129,5.916,5.9208,5.9241,5.9263,5.9284,5.9324,5.9374,5.9348,5.9365,5.9353,5.9389,5.9473,5.9356,5.9356,5.9379,5.9567,5.959,5.9606,5.9458,5.946,5.9462,5.9566,0,5.9154,5.9238,5.9227,5.9308,5.9346,5.9316,5.9358,5.9375,5.9377,5.9409,5.941,5.9446,5.9409,5.9419,5.9453,5.9456,5.9511,5.9448,5.9496,5.9498,5.9493,5.9624,5.9647,5.9745,5.9579,5.9582,5.9583,0,5.9278,5.9306,5.9391,5.9407,5.9423,5.9461,5.9491,5.9522,5.9542,5.954,5.9561,5.9543,5.9592,5.9544,5.9611,5.9568,5.9587,5.9592,5.9595,5.96,5.9546,5.9633,5.9775,5.9791,5.9604,5.9602,5.9601,0,5.9367,5.9425,5.9484,5.9496,5.9517,5.9544,5.9554,5.957,5.9592,5.9618,5.9632,5.9664,5.9681,5.9706,5.9698,5.9663,5.9768,5.9718,5.9769,5.9769,5.9792,5.9791,5.9941,5.9803,5.9802,5.9802,5.9802,0,5.9477,5.9531,5.9524,5.9561,5.962,5.9607,5.9667,5.9672,5.9688,5.9725,5.97,5.9736,5.9722,5.9757,5.9751,5.9809,5.9816,5.9817,5.9815,5.982,5.982,5.9833,5.9826,5.9806,5.9805,5.9804,5.9804,0,5.9587,5.9584,5.9647,5.9662,5.9667,5.971,5.9723,5.9757,5.9757,5.9805,5.9815,5.9815,5.9855,5.9849,5.9893,5.9889,5.9961,5.995,5.9955,5.9953,6.0005,6.0001,6.0169,6.0191,6.0037,6.0038,6.004,0,5.9658,5.9699,5.9719,5.9743,5.9755,5.9793,5.9816,5.9805,5.9829,5.9855,5.9887,5.9925,5.9954,6.0019,6.0023,6.0057,6.0047,6.0104,6.0052,6.0057,6.005,6.0049,6.0054,6.0114,6.0116,6.0118,6.0119,0,5.9786,5.9783,5.9817,5.9851,5.9879,5.9904,5.9928,5.9948,5.994,5.9968,6.001,6.0033,6.0079,6.0117,6.0149,6.0159,6.0138,6.0135,6.0149,6.0155,6.0157,6.0159,5.9985,6.0131,6.013,6.0129,6.0129,6.0128,5.9879,5.9915,5.9936,5.9975,5.9991,6.0014,6.0048,6.0053,6.0088,6.0125,6.0116,6.0164,6.0183,6.0224,6.0238,6.0274,6.0253,6.0273,6.0278,6.0283,6.029,6.0151,6.028,6.0279,6.0279,6.0279,6.0278,0,6.0007,6.002,6.0055,6.009,6.0121,6.01,6.0125,6.0152,6.0194,6.0214,6.0245,6.0293,6.0331,6.0338,6.0374,6.0402,6.0394,6.0412,6.0411,6.0414,6.0306,6.0291,6.0419,6.0419,6.0418,6.0418,6.0418,6.0418,6.0078,6.0138,6.0138,6.0207,6.0219,6.0266,6.0282,6.0303,6.032,6.0375,6.0407,6.0412,6.0428,6.0465,6.0499,6.05,6.0515,6.0537,6.0535,6.0435,6.0421,6.0407,6.0394,6.054,6.0541,6.064,6.0641,6.0642]}]]